Tracking 22458 objects as of 2-Mar-2021
HD Live streaming from Space Station
objects crossing your sky now

CZ-4 DEB

Track CZ-4 DEB now!
10-day predictions


NORAD ID: 37610
Int'l Code: 1990-081CW
Perigee: 871.9 km
Apogee: 1,096.6 km
Inclination: 99.1 °
Period: 104.6 minutes
Semi major axis: 7355 km
RCS: 0.0013 m2 (small)
Launch date: September 3, 1990
Source: People's Republic of China (PRC)
Launch site: Taiyaun Space Center, China (TSC)

Note: This is SATELLITE DEBRIS
aabbcc
Your satellite tracking list
Your tracking list is empty




NASA's NSSDC Master Catalog

Two Line Element Set (TLE):
1 37610U 90081CW  21060.29908825  .00000000  00000-0  41028-4 0  9996
2 37610  99.0982   5.8827 0152712 297.7663  60.8074 13.76279205441369
Source of the keplerian elements: AFSPC